Location: Bazugues
(43.4465°N, 0.3432°E)
Time: 17:54:09
(UTC+00:00)

NOAA 6 - Visible Passes

Search period start: 11 April 2026 00:00
Search period end: 21 April 2026 00:00
Orbit: 766 x 781 km, 98.6° (Epoch: 11 April)

Date Brightness Start Highest point End Pass type
(mag) Time Alt. Az. Time Alt. Az. Time Alt. Az.
11 Apr 5.2 19:20:06 10° S 19:24:58 46° W 19:29:53 10° NNW visible
12 Apr 7.0 20:28:43 10° WSW 20:30:22 11° W 20:32:02 10° WNW visible
13 Apr 6.3 19:51:32 10° SSW 19:55:39 24° W 19:59:45 10° NW visible
14 Apr 5.0 19:16:09 10° S 19:21:05 50° W 19:26:02 10° NNW visible
15 Apr 6.9 20:24:16 10° WSW 20:26:27 13° W 20:28:37 10° WNW visible
16 Apr 6.2 19:47:28 10° SSW 19:51:43 26° W 19:55:59 10° NW visible
17 Apr 4.9 19:12:12 10° S 19:17:11 54° W 19:22:12 10° NNW visible
18 Apr 6.8 20:19:56 10° WSW 20:22:30 14° W 20:25:04 10° WNW visible
19 Apr 6.0 19:43:26 10° SSW 19:47:48 29° W 19:52:12 10° NW visible
20 Apr 4.7 19:08:16 10° S 19:13:17 59° W 19:18:19 10° NNW visible
